Regional Weather Roundup
Issued by NWS

Home | Current Version | Previous Version | Text Only | Print | Product List | Glossary Off
Versions: 1 2 3 4 5 6 7 8 9 10 11 12 13 14 15 16 17 18 19 20 21 22 23 24 25 26 27 28 29 30 31 32 33 34 35 36 37 38 39 40 41 42 43 44 45 46 47 48 49 50

000
ASUS45 KBOU 210510
RWRCO

WEATHER ROUNDUP FOR COLORADO
NATIONAL WEATHER SERVICE DENVER/BOULDER CO
1000 PM MST TUE FEB 20 2018

NOTE: "FAIR" INDICATES FEW OR NO CLOUDS BELOW 12000 FEET WITH NO
SIGNIFICANT WEATHER AND/OR OBSTRUCTIONS TO VISIBILITY.

COZ001>005-013-030-031-210600-
...NORTHWEST COLORADO...

CITY           SKY/WX    TMP DP  RH WIND       PRES   REMARKS
CRAIG          FAIR      -8 -14  74 CALM      30.11R
HAYDEN         FAIR       5  -2  72 SE8       30.09S WCI  -8
MEEKER         FAIR       1  -5  75 E3        30.08S
RANGELY        FAIR       9   1  70 E8        30.14R WCI  -4
RABBIT EARS PA FAIR      -4  -8  84 MISG      29.88R
STEAMBOAT SPGS FAIR       2  -1  88 CALM      30.08R
WALDEN         FAIR       0  -9  65 S8        30.00S WCI -15
$$

COZ006>008-011-210600-
...WEST CENTRAL VALLEYS...

CITY           SKY/WX    TMP DP  RH WIND       PRES   REMARKS
GRAND JUNCTION FAIR      23  17  78 SE10      30.12R WCI  12
MONTROSE       FAIR      14  12  92 SE5       30.15R WCI   6
EAGLE          MOCLDY    14   8  77 E7        30.11R WCI   4
RIFLE          FAIR      13   5  70 SE6       30.12R WCI   4
DELTA          MOCLDY    21  12  68 NE5       30.16R WCI  15
NUCLA          FAIR      18  14  86 E7        30.14R WCI   8
$$

COZ017>023-064>068-210600-
...SOUTHWEST COLORADO...

CITY           SKY/WX    TMP DP  RH WIND       PRES   REMARKS
DURANGO        FAIR      15  10  80 N7        30.09R WCI   5
CORTEZ         FAIR      14  10  84 N3        30.10R
PAGOSA SPRINGS FAIR       8   3  82 CALM      30.08R
TELLURIDE      FAIR       9  -2  61 CALM      30.01S
WOLF CREEK PAS CLOUDY     0  -4  85 S20G29    29.93R WCI -22
$$

COZ009-010-012-014-032>034-037-058>063-210600-
...CENTRAL COLORADO...

CITY           SKY/WX    TMP DP  RH WIND       PRES   REMARKS
ASPEN          CLOUDY     8   0  69 S9        30.03R WCI  -5
BUENA VISTA    CLOUDY    14   0  53 S3        30.03R
COPPER MTN     FAIR       0  -9  65 SW10G21   29.84R WCI -17
BERTHOUD PASS  FAIR      -8 -18  59 MISG      29.80R
COTTONWOOD PAS CLOUDY    14   0  52 W6        29.96R WCI   5
GUNNISON       FAIR       8   3  80 CALM      30.06R
GRANBY         LGT SNOW   6   2  86 SE6       30.03R WCI  -5
KREMMLING      LGT SNOW  14   9  79 CALM      30.07R
LEADVILLE      FAIR      -8 -13  78 E8        29.93R WCI -24
MONARCH PASS     N/A      0  -6  78 SW22G28   29.96R WCI -23
SALIDA         FAIR      16   4  59 SW7       30.12R WCI   6
SUNLIGHT       FAIR      -4  -8  84 SW10G16   29.95R WCI -21
WILKERSON PASS FAIR       0  -8  71 SW8       29.92R WCI -15
$$

COZ069>075-210600-
...SAN LUIS VALLEY/SANGRE DE CRISTO MOUNTAINS...

CITY           SKY/WX    TMP DP  RH WIND       PRES   REMARKS
ALAMOSA        FAIR      12   3  67 S3        30.05R
DEL NORTE      FAIR       8  -1  66 W5        30.06R WCI  -1
LA VETA PASS   MOCLDY     9   0  66 S12G25    30.08R WCI  -6
SAGUACHE       FAIR       9   3  78 N6        30.06R WCI  -1
$$

COZ035-036-038>040-210600-
...NORTHERN COLORADO FRONT RANGE...

CITY           SKY/WX    TMP DP  RH WIND       PRES   REMARKS
DENVER INTL AP FLURRIES   9   3  77 E9        30.15R WCI  -4
AURORA         FLURRIES  10   7  87 VRB3      30.14R
FRONT RANGE AP CLOUDY    14  10  85 SE3       30.15R
ERIE MUNI ARPT FAIR       0  -3  85 SW3       30.24R
BOULDER MUN AP FAIR       7   5  92 CALM      30.17R
CENTENNIAL     FLURRIES  13   9  84 E5        30.12R WCI   5
BROOMFIELD     PTCLDY   N/A N/A N/A CALM      30.14R
FORT COLLINS   FAIR       2  -2  83 SW5       30.19R WCI  -8
LONGMONT       LGT SNOW   1  -4  79 CALM      30.21R
$$

COZ041-046-047-076>085-087-088-210600-
...PIKES PEAK/PALMER DIVIDE AND SOUTHERN FOOTHILLS...

CITY           SKY/WX    TMP DP  RH WIND       PRES   REMARKS
COLO. SPRINGS  LGT SNOW  13  10  88 S12       30.17R FOG     WCI  -1
A. F. ACADEMY  LGT SNOW  12   9  85 S9        30.12R FOG     WCI   0
SCHRIEVER AFB  NOT AVBL
CHEYENNE MTN   LGT SNOW  10   9  92 S9        30.05S WCI  -2
ELLICOTT         N/A    N/A N/A N/A S6          N/A
FALCON         LGT SNOW  11   9  93 MISG      30.13R
FORT CARSON    CLOUDY    14  10  85 S9        30.17R WCI   2
LIMON          FAIR      -2  -5  87 CALM      30.21R
MONUMENT HILL  CLOUDY    10   7  85 S12       30.09R WCI  -4
CANON CITY     FLURRIES  19  14  79 NE5       30.21R WCI  13
WALSENBURG     NOT AVBL
TRINIDAD       FAIR      14   8  77 NW6       30.18R WCI   5
$$

COZ042>045-048>051-090-091-210600-
...NORTHEAST COLORADO...

CITY           SKY/WX    TMP DP  RH WIND       PRES   REMARKS
GREELEY ARPT   FAIR      -8 -12  83 NW6       30.23  WCI -21
AKRON          CLOUDY     3  -4  72 S8        30.22R WCI -10
BURLINGTON     FAIR      -7 -10  87 W8        30.28R WCI -23
WRAY           FAIR       5   1  85 CALM      30.32R
YUMA           NOT AVBL
STERLING       FAIR       0  -4  85 SW6       30.27R WCI -12
HOLYOKE        FAIR       3  -4  72 SW5       30.30R WCI  -6
FORT MORGAN    FAIR       6  -1  71 CALM      30.24R
$$

COZ086-089-092>099-210600-
...SOUTHEAST COLORADO...

CITY           SKY/WX    TMP DP  RH WIND       PRES   REMARKS
PUEBLO         MOCLDY    16   8  71 E7        30.25R WCI   6
LA JUNTA       FAIR      10   5  80 N8        30.29R WCI  -2
LAMAR          FAIR      14   2  58 N5        30.28R WCI   6
SPRINGFIELD      N/A      7  -2  66 N5        30.26R WCI  -2
$$



USA.gov is the U.S. government's official web portal to all federal, state and local government web resources and services.